Time,TemperatureF,DewpointF,PressureIn,WindDirection,WindDirectionDegrees,WindSpeedMPH,WindSpeedGustMPH,Humidity,HourlyPrecipIn,Conditions,Clouds,dailyrainin,SoftwareType,DateUTC
2014-01-16 00:05:00,38.4,32.5,29.95,NNW,348,0.0,0.0,79,0.00,,,0.00,Wunderground v.1.15,2014-01-16 05:05:00,
2014-01-16 00:09:00,38.2,32.3,29.95,NNW,348,0.0,0.0,79,0.00,,,0.00,Wunderground v.1.15,2014-01-16 05:09:00,
2014-01-16 00:19:00,37.9,32.3,29.95,NNW,348,0.0,0.0,80,0.00,,,0.00,Wunderground v.1.15,2014-01-16 05:19:00,
2014-01-16 00:25:00,37.8,32.2,29.95,North,350,0.0,0.0,80,0.00,,,0.00,Wunderground v.1.15,2014-01-16 05:25:00,
2014-01-16 00:35:00,37.5,31.9,29.95,North,350,0.0,0.0,80,0.00,,,0.00,Wunderground v.1.15,2014-01-16 05:35:00,
2014-01-16 00:45:00,37.3,31.7,29.94,NNW,336,0.0,0.0,80,0.00,,,0.00,Wunderground v.1.15,2014-01-16 05:45:00,
2014-01-16 00:55:00,37.0,31.7,29.95,NNW,337,0.0,0.0,81,0.00,,,0.00,Wunderground v.1.15,2014-01-16 05:55:00,
2014-01-16 00:59:00,37.0,31.7,29.94,NNW,337,0.0,0.0,81,0.00,,,0.00,Wunderground v.1.15,2014-01-16 05:59:00,
2014-01-16 01:05:00,36.9,31.6,29.95,NNW,337,0.0,0.0,81,0.00,,,0.00,Wunderground v.1.15,2014-01-16 06:05:00,
2014-01-16 01:14:00,36.6,31.3,29.94,NNW,337,0.0,0.0,81,0.00,,,0.00,Wunderground v.1.15,2014-01-16 06:14:00,
2014-01-16 01:19:00,36.5,31.5,29.94,NNW,337,0.0,0.0,82,0.00,,,0.00,Wunderground v.1.15,2014-01-16 06:19:00,
2014-01-16 01:29:00,36.2,31.2,29.94,NNW,337,0.0,0.0,82,0.00,,,0.00,Wunderground v.1.15,2014-01-16 06:29:00,
2014-01-16 01:39:00,36.1,31.4,29.95,NNW,337,0.0,0.0,83,0.00,,,0.00,Wunderground v.1.15,2014-01-16 06:39:00,
2014-01-16 01:49:00,35.8,31.1,29.95,NNW,337,0.0,0.0,83,0.00,,,0.00,Wunderground v.1.15,2014-01-16 06:49:00,
2014-01-16 01:59:00,35.5,30.8,29.95,NNW,337,0.0,0.0,83,0.00,,,0.00,Wunderground v.1.15,2014-01-16 06:59:00,
2014-01-16 02:05:00,35.4,30.8,29.95,NNW,337,0.0,0.0,83,0.00,,,0.00,Wunderground v.1.15,2014-01-16 07:05:00,
2014-01-16 02:14:00,35.2,30.6,29.96,NNW,337,0.0,0.0,83,0.00,,,0.00,Wunderground v.1.15,2014-01-16 07:14:00,
2014-01-16 02:20:00,35.2,30.6,29.96,NNW,337,0.0,0.0,83,0.00,,,0.00,Wunderground v.1.15,2014-01-16 07:20:00,
2014-01-16 02:30:00,35.1,30.5,29.96,NNE,24,0.0,0.0,83,0.00,,,0.00,Wunderground v.1.15,2014-01-16 07:30:00,
2014-01-16 02:40:00,35.0,30.1,29.96,NNE,24,0.0,0.0,82,0.00,,,0.00,Wunderground v.1.15,2014-01-16 07:40:00,
2014-01-16 02:50:00,35.0,29.5,29.95,North,9,1.0,1.0,80,0.00,,,0.00,Wunderground v.1.15,2014-01-16 07:50:00,
2014-01-16 03:00:00,34.9,29.4,29.96,NNW,348,0.0,0.0,80,0.00,,,0.00,Wunderground v.1.15,2014-01-16 08:00:00,
2014-01-16 03:05:00,34.9,29.4,29.97,North,355,0.0,0.0,80,0.00,,,0.00,Wunderground v.1.15,2014-01-16 08:05:00,
2014-01-16 03:15:00,34.7,28.9,29.97,North,355,0.0,0.0,79,0.00,,,0.00,Wunderground v.1.15,2014-01-16 08:15:00,
2014-01-16 03:20:00,34.7,28.9,29.97,North,355,0.0,0.0,79,0.00,,,0.00,Wunderground v.1.15,2014-01-16 08:20:00,
2014-01-16 03:30:00,34.4,28.6,29.97,North,355,0.0,1.0,79,0.00,,,0.00,Wunderground v.1.15,2014-01-16 08:30:00,
2014-01-16 03:40:00,34.3,28.2,29.97,NW,309,0.0,0.0,78,0.00,,,0.00,Wunderground v.1.15,2014-01-16 08:40:00,
2014-01-16 03:50:00,34.2,28.1,29.97,NW,309,0.0,0.0,78,0.00,,,0.00,Wunderground v.1.15,2014-01-16 08:50:00,
2014-01-16 04:00:00,33.9,27.4,29.97,NNW,329,0.0,0.0,77,0.00,,,0.00,Wunderground v.1.15,2014-01-16 09:00:00,
2014-01-16 04:05:00,33.9,27.4,29.97,NNW,345,0.0,0.0,77,0.00,,,0.00,Wunderground v.1.15,2014-01-16 09:05:00,
2014-01-16 04:15:00,33.7,27.3,29.97,NNW,345,0.0,0.0,77,0.00,,,0.00,Wunderground v.1.15,2014-01-16 09:15:00,
2014-01-16 04:25:00,33.5,27.1,29.97,NNW,345,0.0,0.0,77,0.00,,,0.00,Wunderground v.1.15,2014-01-16 09:25:00,
2014-01-16 04:35:00,33.4,26.6,29.97,NNW,345,0.0,0.0,76,0.00,,,0.00,Wunderground v.1.15,2014-01-16 09:35:00,
2014-01-16 04:44:00,33.2,26.5,29.98,NNW,345,0.0,0.0,76,0.00,,,0.00,Wunderground v.1.15,2014-01-16 09:44:00,
2014-01-16 04:49:00,33.1,26.4,29.98,NNW,345,0.0,0.0,76,0.00,,,0.00,Wunderground v.1.15,2014-01-16 09:49:00,
2014-01-16 04:55:00,33.0,26.3,29.98,NNW,345,0.0,0.0,76,0.00,,,0.00,Wunderground v.1.15,2014-01-16 09:55:00,
2014-01-16 05:05:00,32.8,25.7,29.98,NNW,345,0.0,0.0,75,0.00,,,0.00,Wunderground v.1.15,2014-01-16 10:05:00,
2014-01-16 05:14:00,32.7,25.3,29.98,NW,324,0.0,0.0,74,0.00,,,0.00,Wunderground v.1.15,2014-01-16 10:14:00,
2014-01-16 05:19:00,32.7,25.0,29.98,NNW,327,0.0,0.0,73,0.00,,,0.00,Wunderground v.1.15,2014-01-16 10:19:00,
2014-01-16 05:29:00,32.7,25.0,29.99,NNW,327,0.0,0.0,73,0.00,,,0.00,Wunderground v.1.15,2014-01-16 10:29:00,
2014-01-16 05:39:00,32.5,24.8,29.99,NNW,327,0.0,0.0,73,0.00,,,0.00,Wunderground v.1.15,2014-01-16 10:39:00,
2014-01-16 05:49:00,32.3,25.3,29.99,NNW,327,0.0,0.0,75,0.00,,,0.00,Wunderground v.1.15,2014-01-16 10:49:00,
2014-01-16 05:59:00,32.2,24.8,29.99,NNW,327,0.0,0.0,74,0.00,,,0.00,Wunderground v.1.15,2014-01-16 10:59:00,
2014-01-16 06:05:00,32.0,25.0,29.99,NNW,327,0.0,0.0,75,0.00,,,0.00,Wunderground v.1.15,2014-01-16 11:05:00,
2014-01-16 06:14:00,31.8,25.1,30.00,NNW,327,0.0,0.0,76,0.00,,,0.00,Wunderground v.1.15,2014-01-16 11:14:00,
2014-01-16 06:20:00,31.7,24.7,30.00,NNW,327,0.0,0.0,75,0.00,,,0.00,Wunderground v.1.15,2014-01-16 11:20:00,
2014-01-16 06:30:00,31.7,24.7,30.00,NNW,327,0.0,0.0,75,0.00,,,0.00,Wunderground v.1.15,2014-01-16 11:30:00,
2014-01-16 06:40:00,31.5,25.1,30.00,NNW,327,0.0,0.0,77,0.00,,,0.00,Wunderground v.1.15,2014-01-16 11:40:00,
2014-01-16 06:50:00,31.4,25.9,30.00,NNW,327,0.0,0.0,80,0.00,,,0.00,Wunderground v.1.15,2014-01-16 11:50:00,
2014-01-16 07:00:00,31.2,25.4,30.01,NNW,327,0.0,0.0,79,0.00,,,0.00,Wunderground v.1.15,2014-01-16 12:00:00,
2014-01-16 07:05:00,31.0,24.9,30.01,NNW,327,0.0,0.0,78,0.00,,,0.00,Wunderground v.1.15,2014-01-16 12:05:00,
2014-01-16 07:15:00,30.7,25.3,30.01,NNW,327,0.0,0.0,80,0.00,,,0.00,Wunderground v.1.15,2014-01-16 12:15:00,
2014-01-16 07:25:00,30.6,25.8,30.02,NNW,327,0.0,0.0,82,0.00,,,0.00,Wunderground v.1.15,2014-01-16 12:25:00,
2014-01-16 07:34:00,30.6,25.2,30.02,NNW,327,0.0,0.0,80,0.00,,,0.00,Wunderground v.1.15,2014-01-16 12:34:00,
2014-01-16 07:39:00,30.5,25.1,30.02,NNW,327,0.0,0.0,80,0.00,,,0.00,Wunderground v.1.15,2014-01-16 12:39:00,
2014-01-16 07:45:00,30.5,24.8,30.02,NNW,327,0.0,0.0,79,0.00,,,0.00,Wunderground v.1.15,2014-01-16 12:45:00,
2014-01-16 07:54:00,30.8,25.4,30.03,NNW,327,0.0,0.0,80,0.00,,,0.00,Wunderground v.1.15,2014-01-16 12:54:00,
2014-01-16 07:59:00,30.7,24.3,30.04,NNW,327,0.0,0.0,77,0.00,,,0.00,Wunderground v.1.15,2014-01-16 12:59:00,
2014-01-16 08:05:00,30.8,24.7,30.04,NNW,327,0.0,0.0,78,0.00,,,0.00,Wunderground v.1.15,2014-01-16 13:05:00,
2014-01-16 08:14:00,30.8,24.7,30.04,NNW,327,0.0,0.0,78,0.00,,,0.00,Wunderground v.1.15,2014-01-16 13:14:00,
2014-01-16 08:19:00,30.8,24.1,30.04,NNW,327,0.0,0.0,76,0.00,,,0.00,Wunderground v.1.15,2014-01-16 13:19:00,
2014-01-16 08:29:00,31.3,23.0,30.04,NNW,327,0.0,1.0,71,0.00,,,0.00,Wunderground v.1.15,2014-01-16 13:29:00,
2014-01-16 08:39:00,32.1,23.1,30.03,NE,43,0.0,1.0,69,0.00,,,0.00,Wunderground v.1.15,2014-01-16 13:39:00,
2014-01-16 08:49:00,32.8,23.0,30.03,NNE,32,0.0,0.0,67,0.00,,,0.00,Wunderground v.1.15,2014-01-16 13:49:00,
2014-01-16 08:59:00,33.5,23.0,30.04,East,80,1.0,1.0,65,0.00,,,0.00,Wunderground v.1.15,2014-01-16 13:59:00,
2014-01-16 09:05:00,33.8,22.9,30.04,ENE,71,0.0,1.0,64,0.00,,,0.00,Wunderground v.1.15,2014-01-16 14:05:00,
2014-01-16 09:14:00,34.4,23.5,30.04,NE,34,1.0,3.0,64,0.00,,,0.00,Wunderground v.1.15,2014-01-16 14:14:00,
2014-01-16 09:19:00,34.7,23.4,30.04,NNE,22,1.0,1.0,63,0.00,,,0.00,Wunderground v.1.15,2014-01-16 14:19:00,
2014-01-16 09:29:00,35.2,23.1,30.04,NNE,19,1.0,1.0,61,0.00,,,0.00,Wunderground v.1.15,2014-01-16 14:29:00,
2014-01-16 09:40:00,35.6,23.9,30.04,East,84,1.0,1.0,62,0.00,,,0.00,Wunderground v.1.15,2014-01-16 14:40:00,
2014-01-16 09:50:00,36.0,23.0,30.04,NNW,336,1.0,1.0,59,0.00,,,0.00,Wunderground v.1.15,2014-01-16 14:50:00,
2014-01-16 09:59:00,36.3,23.7,30.04,NNW,345,0.0,0.0,60,0.00,,,0.00,Wunderground v.1.15,2014-01-16 14:59:00,
2014-01-16 10:05:00,36.5,23.5,30.04,NNW,327,0.0,0.0,59,0.00,,,0.00,Wunderground v.1.15,2014-01-16 15:05:00,
2014-01-16 10:14:00,37.0,23.6,30.05,NE,39,0.0,0.0,58,0.00,,,0.00,Wunderground v.1.15,2014-01-16 15:14:00,
2014-01-16 10:20:00,37.2,23.8,30.05,NNW,348,0.0,0.0,58,0.00,,,0.00,Wunderground v.1.15,2014-01-16 15:20:00,
2014-01-16 10:30:00,37.7,24.2,30.05,NNE,18,0.0,0.0,58,0.00,,,0.00,Wunderground v.1.15,2014-01-16 15:30:00,
2014-01-16 10:39:00,37.9,24.0,30.04,ENE,66,0.0,0.0,57,0.00,,,0.00,Wunderground v.1.15,2014-01-16 15:39:00,
2014-01-16 10:49:00,38.3,24.0,30.04,NE,43,1.0,2.0,56,0.00,,,0.00,Wunderground v.1.15,2014-01-16 15:49:00,
2014-01-16 11:00:00,38.2,24.3,30.04,NNW,346,1.0,1.0,57,0.00,,,0.00,Wunderground v.1.15,2014-01-16 16:00:00,
2014-01-16 11:05:00,38.6,25.1,30.04,ENE,63,1.0,1.0,58,0.00,,,0.00,Wunderground v.1.15,2014-01-16 16:05:00,
2014-01-16 11:14:00,38.9,23.7,30.04,WNW,284,0.0,5.0,54,0.00,,,0.00,Wunderground v.1.15,2014-01-16 16:14:00,
2014-01-16 11:20:00,38.6,23.4,30.04,SSW,206,1.0,1.0,54,0.00,,,0.00,Wunderground v.1.15,2014-01-16 16:20:00,
2014-01-16 11:30:00,38.7,23.5,30.03,West,263,1.0,1.0,54,0.00,,,0.00,Wunderground v.1.15,2014-01-16 16:30:00,
2014-01-16 11:40:00,39.6,24.3,30.02,West,261,0.0,2.0,54,0.00,,,0.00,Wunderground v.1.15,2014-01-16 16:40:00,
2014-01-16 11:50:00,39.1,23.4,30.02,West,270,1.0,2.0,53,0.00,,,0.00,Wunderground v.1.15,2014-01-16 16:50:00,
2014-01-16 12:00:00,39.4,23.7,30.01,West,279,1.0,4.0,53,0.00,,,0.00,Wunderground v.1.15,2014-01-16 17:00:00,
2014-01-16 12:05:00,39.5,23.8,30.01,WNW,293,2.0,4.0,53,0.00,,,0.00,Wunderground v.1.15,2014-01-16 17:05:00,
2014-01-16 12:14:00,40.0,24.2,30.00,NW,307,1.0,2.0,53,0.00,,,0.00,Wunderground v.1.15,2014-01-16 17:14:00,
2014-01-16 12:20:00,40.3,25.0,30.00,WNW,301,1.0,2.0,54,0.00,,,0.00,Wunderground v.1.15,2014-01-16 17:20:00,
2014-01-16 12:30:00,40.7,24.9,30.00,West,277,3.0,3.0,53,0.00,,,0.00,Wunderground v.1.15,2014-01-16 17:30:00,
2014-01-16 12:40:00,40.4,25.1,29.98,West,271,2.0,2.0,54,0.00,,,0.00,Wunderground v.1.15,2014-01-16 17:40:00,
2014-01-16 12:50:00,40.6,25.7,29.98,West,279,2.0,3.0,55,0.00,,,0.00,Wunderground v.1.15,2014-01-16 17:50:00,
2014-01-16 13:00:00,41.3,25.9,29.98,West,259,2.0,2.0,54,0.00,,,0.00,Wunderground v.1.15,2014-01-16 18:00:00,
2014-01-16 13:05:00,41.4,26.0,29.97,West,267,3.0,5.0,54,0.00,,,0.00,Wunderground v.1.15,2014-01-16 18:05:00,
2014-01-16 13:15:00,41.4,25.5,29.97,WSW,251,4.0,5.0,53,0.00,,,0.00,Wunderground v.1.15,2014-01-16 18:15:00,
2014-01-16 13:20:00,41.6,25.7,29.96,West,269,4.0,4.0,53,0.00,,,0.00,Wunderground v.1.15,2014-01-16 18:20:00,
2014-01-16 13:30:00,42.1,25.7,29.96,West,276,2.0,5.0,52,0.00,,,0.00,Wunderground v.1.15,2014-01-16 18:30:00,
2014-01-16 13:40:00,42.3,25.4,29.96,WSW,247,2.0,5.0,51,0.00,,,0.00,Wunderground v.1.15,2014-01-16 18:40:00,
2014-01-16 13:50:00,42.5,25.1,29.96,West,276,3.0,5.0,50,0.00,,,0.00,Wunderground v.1.15,2014-01-16 18:50:00,
2014-01-16 14:00:00,42.4,26.5,29.95,West,270,2.0,2.0,53,0.00,,,0.00,Wunderground v.1.15,2014-01-16 19:00:00,
2014-01-16 14:05:00,42.7,24.8,29.94,West,261,2.0,3.0,49,0.00,,,0.00,Wunderground v.1.15,2014-01-16 19:05:00,
2014-01-16 14:15:00,42.8,24.9,29.94,West,273,3.0,4.0,49,0.00,,,0.00,Wunderground v.1.15,2014-01-16 19:15:00,
2014-01-16 14:20:00,43.0,25.6,29.94,West,273,1.0,1.0,50,0.00,,,0.00,Wunderground v.1.15,2014-01-16 19:20:00,
2014-01-16 14:30:00,43.7,24.8,29.93,West,264,2.0,3.0,47,0.00,,,0.00,Wunderground v.1.15,2014-01-16 19:30:00,
2014-01-16 14:39:00,43.6,25.2,29.93,West,264,3.0,8.0,48,0.00,,,0.00,Wunderground v.1.15,2014-01-16 19:39:00,
2014-01-16 14:45:00,43.6,25.2,29.94,West,263,3.0,8.0,48,0.00,,,0.00,Wunderground v.1.15,2014-01-16 19:45:00,
2014-01-16 14:55:00,43.9,25.5,29.93,West,260,1.0,1.0,48,0.00,,,0.00,Wunderground v.1.15,2014-01-16 19:55:00,
2014-01-16 15:00:00,44.0,24.5,29.94,West,277,2.0,3.0,46,0.00,,,0.00,Wunderground v.1.15,2014-01-16 20:00:00,
2014-01-16 15:05:00,44.1,24.6,29.94,West,270,2.0,6.0,46,0.00,,,0.00,Wunderground v.1.15,2014-01-16 20:05:00,
2014-01-16 15:15:00,44.0,22.9,29.94,West,263,4.0,4.0,43,0.00,,,0.00,Wunderground v.1.15,2014-01-16 20:15:00,
2014-01-16 15:25:00,44.1,23.0,29.94,WSW,256,3.0,4.0,43,0.00,,,0.00,Wunderground v.1.15,2014-01-16 20:25:00,
2014-01-16 15:35:00,44.6,24.0,29.94,WSW,254,2.0,2.0,44,0.00,,,0.00,Wunderground v.1.15,2014-01-16 20:35:00,
2014-01-16 15:45:00,44.5,23.9,29.94,West,267,3.0,4.0,44,0.00,,,0.00,Wunderground v.1.15,2014-01-16 20:45:00,
2014-01-16 15:55:00,44.5,22.8,29.94,West,277,2.0,5.0,42,0.00,,,0.00,Wunderground v.1.15,2014-01-16 20:55:00,
2014-01-16 16:05:00,44.8,23.6,29.94,West,259,1.0,2.0,43,0.00,,,0.00,Wunderground v.1.15,2014-01-16 21:05:00,
2014-01-16 16:14:00,44.8,23.1,29.95,WSW,258,2.0,2.0,42,0.00,,,0.00,Wunderground v.1.15,2014-01-16 21:14:00,
2014-01-16 16:19:00,44.8,24.2,29.95,West,267,1.0,2.0,44,0.00,,,0.00,Wunderground v.1.15,2014-01-16 21:19:00,
2014-01-16 16:29:00,44.9,23.7,29.95,West,265,2.0,4.0,43,0.00,,,0.00,Wunderground v.1.15,2014-01-16 21:29:00,
2014-01-16 16:39:00,44.8,23.6,29.95,West,262,2.0,3.0,43,0.00,,,0.00,Wunderground v.1.15,2014-01-16 21:39:00,
2014-01-16 16:49:00,44.8,24.7,29.96,WSW,255,1.0,3.0,45,0.00,,,0.00,Wunderground v.1.15,2014-01-16 21:49:00,
2014-01-16 16:59:00,44.5,23.9,29.96,WSW,244,1.0,1.0,44,0.00,,,0.00,Wunderground v.1.15,2014-01-16 21:59:00,
2014-01-16 17:05:00,44.4,23.3,29.97,WSW,258,1.0,1.0,43,0.00,,,0.00,Wunderground v.1.15,2014-01-16 22:05:00,
2014-01-16 17:14:00,44.2,23.1,29.97,WSW,255,2.0,4.0,43,0.00,,,0.00,Wunderground v.1.15,2014-01-16 22:14:00,
2014-01-16 17:19:00,44.0,23.5,29.98,West,261,2.0,4.0,44,0.00,,,0.00,Wunderground v.1.15,2014-01-16 22:19:00,
2014-01-16 17:29:00,43.7,23.2,29.97,WSW,246,2.0,2.0,44,0.00,,,0.00,Wunderground v.1.15,2014-01-16 22:29:00,
2014-01-16 17:39:00,43.4,22.9,29.98,WSW,253,1.0,1.0,44,0.00,,,0.00,Wunderground v.1.15,2014-01-16 22:39:00,
2014-01-16 17:49:00,43.1,22.6,29.98,WSW,246,0.0,0.0,44,0.00,,,0.00,Wunderground v.1.15,2014-01-16 22:49:00,
2014-01-16 17:59:00,42.7,22.3,29.98,WSW,246,0.0,0.0,44,0.00,,,0.00,Wunderground v.1.15,2014-01-16 22:59:00,
2014-01-16 18:05:00,42.5,22.1,29.98,WSW,246,0.0,0.0,44,0.00,,,0.00,Wunderground v.1.15,2014-01-16 23:05:00,
2014-01-16 18:10:00,42.4,23.1,29.98,WSW,246,0.0,0.0,46,0.00,,,0.00,Wunderground v.1.15,2014-01-16 23:10:00,
2014-01-16 18:20:00,42.0,22.2,29.98,WSW,246,0.0,0.0,45,0.00,,,0.00,Wunderground v.1.15,2014-01-16 23:20:00,
2014-01-16 18:30:00,41.7,22.4,29.98,WSW,246,0.0,0.0,46,0.00,,,0.00,Wunderground v.1.15,2014-01-16 23:30:00,
2014-01-16 18:40:00,41.4,22.7,29.98,WSW,246,0.0,0.0,47,0.00,,,0.00,Wunderground v.1.15,2014-01-16 23:40:00,
2014-01-16 18:50:00,41.1,22.9,29.98,WSW,246,0.0,0.0,48,0.00,,,0.00,Wunderground v.1.15,2014-01-16 23:50:00,
2014-01-16 19:00:00,40.9,23.2,29.99,WSW,246,0.0,0.0,49,0.00,,,0.00,Wunderground v.1.15,2014-01-17 00:00:00,
2014-01-16 19:05:00,40.8,23.1,29.99,WSW,246,0.0,0.0,49,0.00,,,0.00,Wunderground v.1.15,2014-01-17 00:05:00,
2014-01-16 19:15:00,40.7,23.0,29.99,WSW,246,0.0,0.0,49,0.00,,,0.00,Wunderground v.1.15,2014-01-17 00:15:00,
2014-01-16 19:25:00,40.6,22.9,30.00,WSW,246,0.0,1.0,49,0.00,,,0.00,Wunderground v.1.15,2014-01-17 00:25:00,
2014-01-16 19:35:00,40.2,23.0,30.00,WSW,246,0.0,0.0,50,0.00,,,0.00,Wunderground v.1.15,2014-01-17 00:35:00,
2014-01-16 19:45:00,39.7,23.0,30.00,SSW,209,0.0,1.0,51,0.00,,,0.00,Wunderground v.1.15,2014-01-17 00:45:00,
2014-01-16 19:55:00,39.4,23.2,30.00,South,186,0.0,2.0,52,0.00,,,0.00,Wunderground v.1.15,2014-01-17 00:55:00,
2014-01-16 20:05:00,39.2,23.0,30.00,South,186,0.0,0.0,52,0.00,,,0.00,Wunderground v.1.15,2014-01-17 01:05:00,
2014-01-16 20:14:00,39.1,23.4,30.00,South,186,0.0,1.0,53,0.00,,,0.00,Wunderground v.1.15,2014-01-17 01:14:00,
2014-01-16 20:19:00,39.1,22.9,30.00,South,186,0.0,0.0,52,0.00,,,0.00,Wunderground v.1.15,2014-01-17 01:19:00,
2014-01-16 20:29:00,38.9,23.2,30.00,South,186,0.0,0.0,53,0.00,,,0.00,Wunderground v.1.15,2014-01-17 01:29:00,
2014-01-16 20:39:00,38.8,23.1,30.01,South,186,0.0,0.0,53,0.00,,,0.00,Wunderground v.1.15,2014-01-17 01:39:00,
2014-01-16 20:49:00,38.6,22.9,30.01,South,186,0.0,0.0,53,0.00,,,0.00,Wunderground v.1.15,2014-01-17 01:49:00,
2014-01-16 20:59:00,38.3,23.1,30.01,South,186,0.0,1.0,54,0.00,,,0.00,Wunderground v.1.15,2014-01-17 01:59:00,
2014-01-16 21:05:00,38.2,23.0,30.01,South,186,0.0,1.0,54,0.00,,,0.00,Wunderground v.1.15,2014-01-17 02:05:00,
2014-01-16 21:14:00,37.8,22.6,30.01,South,186,0.0,1.0,54,0.00,,,0.00,Wunderground v.1.15,2014-01-17 02:14:00,
2014-01-16 21:20:00,37.6,22.9,30.01,South,186,0.0,0.0,55,0.00,,,0.00,Wunderground v.1.15,2014-01-17 02:20:00,
2014-01-16 21:30:00,37.4,22.7,30.02,South,186,0.0,0.0,55,0.00,,,0.00,Wunderground v.1.15,2014-01-17 02:30:00,
2014-01-16 21:40:00,37.1,22.8,30.01,South,186,0.0,0.0,56,0.00,,,0.00,Wunderground v.1.15,2014-01-17 02:40:00,
2014-01-16 21:50:00,36.9,23.1,30.01,South,186,0.0,2.0,57,0.00,,,0.00,Wunderground v.1.15,2014-01-17 02:50:00,
2014-01-16 22:00:00,36.7,23.3,30.01,South,186,0.0,1.0,58,0.00,,,0.00,Wunderground v.1.15,2014-01-17 03:00:00,
2014-01-16 22:05:00,36.7,22.9,30.01,SSE,165,0.0,1.0,57,0.00,,,0.00,Wunderground v.1.15,2014-01-17 03:05:00,
2014-01-16 22:15:00,36.6,23.2,30.01,SSE,165,1.0,1.0,58,0.00,,,0.00,Wunderground v.1.15,2014-01-17 03:15:00,
2014-01-16 22:20:00,36.6,23.2,30.02,SSE,165,1.0,1.0,58,0.00,,,0.00,Wunderground v.1.15,2014-01-17 03:20:00,
2014-01-16 22:29:00,36.5,24.7,30.03,SSE,165,0.0,0.0,62,0.00,,,0.00,Wunderground v.1.15,2014-01-17 03:29:00,
2014-01-16 22:35:00,36.4,23.4,30.03,SSE,165,0.0,0.0,59,0.00,,,0.00,Wunderground v.1.15,2014-01-17 03:35:00,
2014-01-16 22:45:00,36.3,23.7,30.03,SSE,165,0.0,0.0,60,0.00,,,0.00,Wunderground v.1.15,2014-01-17 03:45:00,
2014-01-16 22:54:00,36.2,23.2,30.03,WSW,247,0.0,0.0,59,0.00,,,0.00,Wunderground v.1.15,2014-01-17 03:54:00,
2014-01-16 22:59:00,36.2,23.2,30.03,WSW,248,0.0,0.0,59,0.00,,,0.00,Wunderground v.1.15,2014-01-17 03:59:00,
2014-01-16 23:05:00,36.2,23.2,30.03,WSW,248,0.0,0.0,59,0.00,,,0.00,Wunderground v.1.15,2014-01-17 04:05:00,
2014-01-16 23:14:00,36.2,22.8,30.02,WSW,248,0.0,1.0,58,0.00,,,0.00,Wunderground v.1.15,2014-01-17 04:14:00,
2014-01-16 23:19:00,36.4,22.6,30.02,WSW,240,0.0,0.0,57,0.00,,,0.00,Wunderground v.1.15,2014-01-17 04:19:00,
2014-01-16 23:29:00,36.3,22.5,30.02,WSW,240,0.0,0.0,57,0.00,,,0.00,Wunderground v.1.15,2014-01-17 04:29:00,
2014-01-16 23:39:00,36.5,21.8,30.02,WSW,240,0.0,0.0,55,0.00,,,0.00,Wunderground v.1.15,2014-01-17 04:39:00,
2014-01-16 23:49:00,36.7,21.6,30.02,WSW,240,0.0,0.0,54,0.00,,,0.00,Wunderground v.1.15,2014-01-17 04:49:00,
2014-01-16 23:59:00,36.6,21.5,30.02,WSW,240,0.0,0.0,54,0.00,,,0.00,Wunderground v.1.15,2014-01-17 04:59:00,